When you browse on this site, cookies collect data to enhance your experience and personalize the content and advertising you see.
Visit our Privacy Policy to learn more. By continuing to use the site, you agree to this use of cookies and data.
  • In Schweiz
  • Länderverzeichnis
  • Für 7 Tage
  • Wassertemperatur
  • Satellitenkarten
  • Wetterkarte
  • Widgets
  • user-avatar
    Anmelden

    Stündliche Wetter Djelfa

    Heute, 25 Mai, Samstag

    Zeit Temperatur Niederschläge Wind Luftdruck Luftfeuchtigkeit
    00:00 +21°C° 0.3 mm 3 m/S 661 mmHg 34%
    01:00 +20°C° 0.2 mm 3 m/S 661 mmHg 38%
    02:00 +19°C° 0.2 mm 2 m/S 661 mmHg 41%
    03:00 +20°C° 0.2 mm 1 m/S 660 mmHg 44%
    04:00 +18°C° 0 mm 3 m/S 660 mmHg 46%
    05:00 +18°C° 0 mm 4 m/S 660 mmHg 48%
    06:00 +16°C° 0 mm 6 m/S 660 mmHg 50%
    07:00 +17°C° 0 mm 6 m/S 661 mmHg 48%
    08:00 +17°C° 0 mm 6 m/S 661 mmHg 46%
    09:00 +18°C° 0 mm 7 m/S 661 mmHg 45%
    10:00 +20°C° 0 mm 7 m/S 661 mmHg 42%
    11:00 +21°C° 0 mm 7 m/S 661 mmHg 39%
    12:00 +21°C° 0 mm 7 m/S 661 mmHg 36%
    13:00 +21°C° 0.1 mm 7 m/S 661 mmHg 38%
    14:00 +21°C° 0.1 mm 8 m/S 660 mmHg 40%
    15:00 +20°C° 0.1 mm 8 m/S 660 mmHg 41%
    16:00 +18°C° 0.1 mm 9 m/S 660 mmHg 45%
    17:00 +17°C° 0.1 mm 9 m/S 660 mmHg 49%
    18:00 +16°C° 0.1 mm 10 m/S 660 mmHg 53%
    19:00 +14°C° 0 mm 10 m/S 660 mmHg 56%
    20:00 +13°C° 0 mm 10 m/S 661 mmHg 58%
    21:00 +12°C° 0 mm 10 m/S 661 mmHg 61%
    22:00 +11°C° 0 mm 10 m/S 661 mmHg 64%
    23:00 +11°C° 0 mm 9 m/S 661 mmHg 67%

    Morgen, 26 Mai, Sonntag

    Zeit Temperatur Niederschläge Wind Luftdruck Luftfeuchtigkeit
    00:00 +10°C° 0 mm 9 m/S 661 mmHg 70%
    01:00 +10°C° 0 mm 9 m/S 660 mmHg 72%
    02:00 +9°C° 0 mm 8 m/S 660 mmHg 75%
    03:00 +9°C° 0 mm 8 m/S 660 mmHg 78%
    04:00 +8°C° 0 mm 9 m/S 660 mmHg 78%
    05:00 +8°C° 0 mm 9 m/S 660 mmHg 79%
    06:00 +8°C° 0 mm 9 m/S 660 mmHg 79%
    07:00 +10°C° 0 mm 9 m/S 661 mmHg 76%
    08:00 +11°C° 0 mm 10 m/S 661 mmHg 72%
    09:00 +12°C° 0 mm 10 m/S 661 mmHg 69%
    10:00 +13°C° 0 mm 10 m/S 662 mmHg 63%
    11:00 +14°C° 0 mm 10 m/S 662 mmHg 58%
    12:00 +16°C° 0 mm 10 m/S 662 mmHg 53%
    13:00 +16°C° 0 mm 10 m/S 662 mmHg 51%
    14:00 +17°C° 0 mm 10 m/S 662 mmHg 49%
    15:00 +17°C° 0 mm 10 m/S 662 mmHg 47%
    16:00 +17°C° 0 mm 10 m/S 662 mmHg 50%
    17:00 +16°C° 0 mm 10 m/S 662 mmHg 53%
    18:00 +15°C° 0 mm 9 m/S 662 mmHg 56%
    19:00 +13°C° 0 mm 9 m/S 663 mmHg 61%
    20:00 +12°C° 0 mm 8 m/S 663 mmHg 66%
    21:00 +11°C° 0 mm 8 m/S 663 mmHg 70%
    22:00 +11°C° 0 mm 7 m/S 663 mmHg 72%
    23:00 +10°C° 0 mm 6 m/S 663 mmHg 74%

    übermorgen, 27 Mai, Montag

    Zeit Temperatur Niederschläge Wind Luftdruck Luftfeuchtigkeit
    00:00 +10°C° 0 mm 5 m/S 663 mmHg 76%
    01:00 +9°C° 0 mm 5 m/S 662 mmHg 77%
    02:00 +10°C° 0 mm 4 m/S 662 mmHg 78%
    03:00 +10°C° 0 mm 4 m/S 661 mmHg 79%
    04:00 +10°C° 0 mm 4 m/S 662 mmHg 76%
    05:00 +10°C° 0 mm 5 m/S 662 mmHg 73%
    06:00 +10°C° 0 mm 5 m/S 662 mmHg 69%
    07:00 +13°C° 0 mm 6 m/S 662 mmHg 62%
    08:00 +14°C° 0 mm 6 m/S 663 mmHg 54%
    09:00 +16°C° 0 mm 7 m/S 663 mmHg 46%
    10:00 +17°C° 0 mm 7 m/S 663 mmHg 41%
    11:00 +19°C° 0 mm 6 m/S 664 mmHg 36%
    12:00 +20°C° 0 mm 6 m/S 664 mmHg 31%
    13:00 +21°C° 0 mm 6 m/S 663 mmHg 29%
    14:00 +21°C° 0 mm 6 m/S 663 mmHg 28%
    15:00 +22°C° 0 mm 5 m/S 663 mmHg 26%
    16:00 +21°C° 0 mm 5 m/S 663 mmHg 27%
    17:00 +21°C° 0 mm 5 m/S 663 mmHg 27%
    18:00 +21°C° 0 mm 4 m/S 663 mmHg 28%
    19:00 +20°C° 0 mm 4 m/S 663 mmHg 30%
    20:00 +19°C° 0 mm 3 m/S 663 mmHg 33%
    21:00 +18°C° 0 mm 3 m/S 664 mmHg 36%
    22:00 +18°C° 0 mm 2 m/S 664 mmHg 39%
    23:00 +17°C° 0 mm 2 m/S 663 mmHg 43%

    28 Mai, Dienstag

    Zeit Temperatur Niederschläge Wind Luftdruck Luftfeuchtigkeit
    00:00 +17°C° 0 mm 2 m/S 663 mmHg 47%
    01:00 +16°C° 0 mm 2 m/S 663 mmHg 48%
    02:00 +16°C° 0 mm 2 m/S 663 mmHg 49%
    03:00 +16°C° 0 mm 3 m/S 663 mmHg 51%
    04:00 +16°C° 0 mm 3 m/S 663 mmHg 51%
    05:00 +15°C° 0 mm 4 m/S 663 mmHg 51%
    06:00 +17°C° 0 mm 4 m/S 663 mmHg 52%
    07:00 +17°C° 0 mm 5 m/S 664 mmHg 45%
    08:00 +20°C° 0 mm 6 m/S 665 mmHg 38%
    09:00 +22°C° 0 mm 7 m/S 665 mmHg 30%
    10:00 +23°C° 0 mm 6 m/S 665 mmHg 28%
    11:00 +25°C° 0 mm 5 m/S 665 mmHg 25%
    12:00 +27°C° 0 mm 5 m/S 665 mmHg 23%
    13:00 +27°C° 0 mm 5 m/S 665 mmHg 23%
    14:00 +27°C° 0 mm 5 m/S 664 mmHg 23%
    15:00 +27°C° 0 mm 5 m/S 664 mmHg 24%
    16:00 +27°C° 0.1 mm 5 m/S 664 mmHg 26%
    17:00 +26°C° 0.1 mm 5 m/S 664 mmHg 28%
    18:00 +26°C° 0.1 mm 5 m/S 664 mmHg 30%
    19:00 +23°C° 0 mm 4 m/S 664 mmHg 35%
    20:00 +22°C° 0 mm 3 m/S 664 mmHg 41%
    21:00 +21°C° 0 mm 3 m/S 664 mmHg 46%
    22:00 +20°C° 0 mm 3 m/S 664 mmHg 47%
    23:00 +20°C° 0 mm 3 m/S 664 mmHg 48%

    29 Mai, Mittwoch

    Zeit Temperatur Niederschläge Wind Luftdruck Luftfeuchtigkeit
    00:00 +20°C° 0 mm 3 m/S 664 mmHg 49%
    01:00 +19°C° 0 mm 2 m/S 664 mmHg 51%
    02:00 +18°C° 0 mm 2 m/S 663 mmHg 54%
    03:00 +18°C° 0 mm 2 m/S 663 mmHg 56%
    04:00 +20°C° 0 mm 1 m/S 663 mmHg 53%
    05:00 +20°C° 0 mm 1 m/S 664 mmHg 50%
    06:00 +21°C° 0 mm 1 m/S 664 mmHg 48%
    07:00 +22°C° 0 mm 1 m/S 664 mmHg 42%
    08:00 +23°C° 0 mm 1 m/S 665 mmHg 37%
    09:00 +25°C° 0 mm 1 m/S 665 mmHg 32%
    10:00 +26°C° 0 mm 2 m/S 665 mmHg 29%
    11:00 +27°C° 0 mm 3 m/S 666 mmHg 26%
    12:00 +28°C° 0 mm 4 m/S 666 mmHg 22%
    13:00 +29°C° 0 mm 4 m/S 666 mmHg 21%
    14:00 +29°C° 0 mm 5 m/S 665 mmHg 20%
    15:00 +29°C° 0 mm 6 m/S 665 mmHg 19%
    16:00 +29°C° 0.1 mm 5 m/S 665 mmHg 19%
    17:00 +28°C° 0.1 mm 5 m/S 665 mmHg 20%
    18:00 +28°C° 0.1 mm 5 m/S 665 mmHg 21%
    19:00 +26°C° 0 mm 5 m/S 666 mmHg 26%
    20:00 +25°C° 0 mm 5 m/S 666 mmHg 31%
    21:00 +23°C° 0 mm 5 m/S 667 mmHg 36%
    22:00 +22°C° 0 mm 5 m/S 666 mmHg 43%
    23:00 +21°C° 0 mm 5 m/S 666 mmHg 50%

    30 Mai, Donnerstag

    Zeit Temperatur Niederschläge Wind Luftdruck Luftfeuchtigkeit
    00:00 +20°C° 0 mm 5 m/S 666 mmHg 57%
    01:00 +19°C° 0.1 mm 5 m/S 666 mmHg 63%
    02:00 +17°C° 0.1 mm 5 m/S 666 mmHg 68%
    03:00 +16°C° 0.1 mm 6 m/S 665 mmHg 74%
    04:00 +16°C° 0 mm 5 m/S 666 mmHg 73%
    05:00 +17°C° 0 mm 4 m/S 666 mmHg 72%
    06:00 +17°C° 0 mm 3 m/S 666 mmHg 71%
    07:00 +18°C° 0 mm 3 m/S 667 mmHg 66%
    08:00 +19°C° 0 mm 3 m/S 668 mmHg 60%
    09:00 +21°C° 0 mm 3 m/S 668 mmHg 55%
    10:00 +21°C° 0.9 mm 2 m/S 668 mmHg 53%
    11:00 +23°C° 0.9 mm 2 m/S 668 mmHg 51%
    12:00 +23°C° 0.9 mm 2 m/S 668 mmHg 50%
    13:00 +23°C° 2.1 mm 2 m/S 668 mmHg 51%
    14:00 +22°C° 2.1 mm 3 m/S 667 mmHg 52%
    15:00 +22°C° 2.1 mm 3 m/S 667 mmHg 53%
    16:00 +22°C° 0.6 mm 3 m/S 667 mmHg 53%
    17:00 +22°C° 0.6 mm 3 m/S 667 mmHg 53%
    18:00 +21°C° 0.6 mm 3 m/S 668 mmHg 54%
    19:00 +21°C° 0.1 mm 3 m/S 668 mmHg 54%
    20:00 +21°C° 0.1 mm 3 m/S 669 mmHg 54%
    21:00 +21°C° 0.1 mm 3 m/S 669 mmHg 54%
    22:00 +20°C° 0 mm 3 m/S 669 mmHg 54%
    23:00 +19°C° 0 mm 4 m/S 669 mmHg 55%
    Mehr zeigen